ONEWEB-0054, 45158

Orbit data source: Space-Track

ONEWEB-0054, 45158 is a payload satellite owned by One Web (UK) in LEO that was launched on Thu, 06 Feb 2020 UTC via a SOYUZ-2-1B launch vehicle from the Tyuratam Missile And Space Complex (TTMTR). Payload-class satellites include a variety of spacecraft equipped with specific instruments for various scientific and technological missions. These include communications satellites like Starlink; space stations such as the ISS; scientific satellites like the Hubble; Earth observation satellites from companies like Planet Labs, Umbra, and HawkEye 360; GPS; miniature CubeSats for education and research; and military/defense satellites.

Loading next visibility...
Identifier
45158, 2020-008AD
Orbit
LEO
Last TLE update
15 hours ago
Origin
Manufacturer
One Web
Mission
Operational Commercial Communications
Bus & Motor
ARROW, Unknown motor
Mass
148 kg wet, ~140 kg dry
Launch date (UTC)
2020-02-06 (5 years ago)
Launch vehicle
SOYUZ-2-1B
Launch site
Tyuratam Missile And Space Complex (TTMTR)
Object type
Payload
Rocket body
Debris
Shape & HBR
Trap Box + 2 Pan, 5 m
Radar Cross Section
2.957 m², Large (>1 m²)

Expand to show TLE details & history

TLE from 15 hours ago
0 ONEWEB-0054
1 45158U 20008AD  25191.45926814 -.00000036  00000-0 -13932-3 0  9992
2 45158  87.8819 104.4191 0001903  75.5508 284.5831 13.10369069263278
Epoch: 2025-07-10T11:01Z
TLE epoch observation values (Epoch: 2025-07-10T11:01:20.767Z)
Latitude
0.00005°
Longitude
10.45733°
Altitude
1,224.255 km
Speed
7.242 km/s
True Right ascension
06h 57m 40s
True Declination
0° 00' 00"
Sunlit
Object was in daylight at epoch
Visualization orbit readout
Latitude
23.74146°
Longitude
-170.59828°
Altitude
1,224.412 km
Speed
7.244 km/s
Apparent Right ascension
21h 44m 48s
Apparent Declination
-9° 09' 22"
Sunlit
Object is in full shadow
Visualization observer readout
Local Sidereal Time
14:45:14
Azimuth
87.552° E
Elevation
-17.262°
Doppler factor
1
Orbital elements
Apogee altitude
1,220.297 km
Perigee altitude
1,217.406 km
Semi-major axis
7,596.988 km
Eccentricity
0.00019
Inclination
87.8819°
RAAN
104.4191°
Arg. of periapsis
75.5508°
True anomaly
Unknown
Mean anomaly
284.5831°
Eccentric anomaly
Unknown
Mean motion
3.27779 °/min
Orbital period
109.83 mins
BSTAR
-0.00013932
Loading maneuver chart data...
Loading SW <> Apogee altitude chart data...
Loading historical data...
Loading historical data...
Loading historical data...
Loading historical data...
Loading historical data...
Loading historical data...
Loading historical data...

ONEWEB-0054 Visibility forecast

Observer location: undefined°, undefined°

Span
Click to sort rows by Start time (UTC) header in descending order
Start Az.
Max El. time (UTC)
Max El. Az.
Max El.
End time (UTC)
End Az.
14 mins2025-07-11 05:56:39.993Z7.864° NNE2025-07-11 06:03:39.993Z89.021° E40.289°2025-07-11 06:10:39.993Z164.005° S
10 mins2025-07-11 07:48:39.993Z326.9° NNW2025-07-11 07:52:39.993Z287.766° WNW22.981°2025-07-11 07:58:39.993Z232.591° WSW
13 mins2025-07-11 18:16:39.993Z163.833° S2025-07-11 18:22:39.993Z91.899° ESE42.221°2025-07-11 18:29:39.993Z7.134° NNE
9 mins2025-07-11 20:09:39.993Z247.739° W2025-07-11 20:13:39.993Z288.012° WNW20.626°2025-07-11 20:18:39.993Z332.104° NNW
|